WetterOnline ( https://www.wetteronline.de )

Wetter aktuell Linz

Aktuelles Wetter: Linz Flughafen (313m)

6-stündlich | Neueste Meldungen
Ortszeit Temperatur Wetter
Do, 14.11. 13:00 5.6° C leicht bewölkt
Do, 14.11. 7:00 -0.6° C leicht bewölkt
Do, 14.11. 1:00 0.3° C Nebelschwaden
Mi, 13.11. 19:00 2.5° C leichter Regen
Mi, 13.11. 13:00 1.6° C leichter Regen
Mi, 13.11. 7:00 0.6° C leichter Schneeregen
Mi, 13.11. 1:00 2.0° C leichter Regen
Di, 12.11. 19:00 4.1° C Regen
Ortszeit Temperatur Wetter
Do, 14.11. 18:00 4.5° C fast wolkenlos
Do, 14.11. 17:50 5° C -
Do, 14.11. 17:20 5° C -
Do, 14.11. 17:00 5.4° C leicht bewölkt
Do, 14.11. 16:50 5° C leicht bewölkt
Do, 14.11. 16:20 6° C leicht bewölkt
Do, 14.11. 16:00 6.8° C leicht bewölkt
Do, 14.11. 15:20 7° C leicht bewölkt
Do, 14.11. 15:00 6.7° C leicht bewölkt
Do, 14.11. 14:20 6° C leicht bewölkt
Ortszeit Relative Feuchte Sichtweite
Do, 14.11. 13:00 85% 40 km
Do, 14.11. 7:00 100% 4.6 km
Do, 14.11. 1:00 100% 0.7 km
Mi, 13.11. 19:00 96% 19 km
Mi, 13.11. 13:00 97% 10 km
Mi, 13.11. 7:00 100% 6 km
Mi, 13.11. 1:00 97% 12 km
Di, 12.11. 19:00 98% 4.8 km
Ortszeit Relative Feuchte Sichtweite
Do, 14.11. 18:00 83% 50 km
Do, 14.11. 17:50 81% >10 km
Do, 14.11. 17:20 87% >10 km
Do, 14.11. 17:00 83% 40 km
Do, 14.11. 16:50 87% >10 km
Do, 14.11. 16:20 81% >10 km
Do, 14.11. 16:00 76% 45 km
Do, 14.11. 15:20 76% >10 km
Do, 14.11. 15:00 81% 35 km
Do, 14.11. 14:20 81% >10 km
Ortszeit Niederschlagsmenge Niederschlagsart
Do, 14.11. 13:00 keine Meldung -
Do, 14.11. 7:00 0.4 l/m2 in 12 Std. -
Do, 14.11. 1:00 0.4 l/m2 in 6 Std. -
Mi, 13.11. 19:00 8 l/m2 in 12 Std. -
Mi, 13.11. 13:00 5 l/m2 in 6 Std. -
Mi, 13.11. 7:00 8 l/m2 in 12 Std. -
Mi, 13.11. 1:00 5 l/m2 in 6 Std. -
Di, 12.11. 19:00 2 l/m2 in 12 Std. -
Ortszeit Niederschlagsmenge Niederschlagsart
Do, 14.11. 18:00 0.0 l/m2 in 1 Std. -
Do, 14.11. 17:50 keine Meldung -
Do, 14.11. 17:20 keine Meldung -
Do, 14.11. 17:00 0.0 l/m2 in 1 Std. -
Do, 14.11. 16:50 keine Meldung -
Do, 14.11. 16:20 keine Meldung -
Do, 14.11. 16:00 0.0 l/m2 in 1 Std. -
Do, 14.11. 15:20 keine Meldung -
Do, 14.11. 15:00 0.0 l/m2 in 1 Std. -
Do, 14.11. 14:20 keine Meldung -
Ortszeit Stärke Spitze Richtung
km/h Bft. km/h Grad Sektor
Do, 14.11. 13:00 18 3 - 100° O
Do, 14.11. 7:00 7 2 - - -
Do, 14.11. 1:00 7 2 - - -
Mi, 13.11. 19:00 7 2 - - -
Mi, 13.11. 13:00 11 2 - 240° SW
Mi, 13.11. 7:00 7 2 - - -
Mi, 13.11. 1:00 11 2 - 250° W
Di, 12.11. 19:00 7 2 - - -
Ortszeit Stärke Spitze Richtung
km/h Bft. km/h Grad Sektor
Do, 14.11. 18:00 18 3 - 70° O
Do, 14.11. 17:50 17 3 - 70° O
Do, 14.11. 17:20 15 3 - 100° O
Do, 14.11. 17:00 14 3 - 90° O
Do, 14.11. 16:50 13 3 - 90° O
Do, 14.11. 16:20 13 3 - 90° O
Do, 14.11. 16:00 18 3 - 90° O
Do, 14.11. 15:20 20 4 - 90° O
Do, 14.11. 15:00 22 4 - 100° O
Do, 14.11. 14:20 15 3 - 100° O
Ortszeit Untergrenze Bedeckung Gattung
total tief tief mittel hoch
Do, 14.11. 13:00 300 m 4/8 2/8 Cu - Ci
Do, 14.11. 7:00 60 m 5/8 3/8 - - -
Do, 14.11. 1:00 30 m 8/8 6/8 - - -
Mi, 13.11. 19:00 270 m 8/8 5/8 - - -
Mi, 13.11. 13:00 90 m 8/8 7/8 St - -
Mi, 13.11. 7:00 30 m 8/8 6/8 - - -
Mi, 13.11. 1:00 120 m 8/8 5/8 - - -
Di, 12.11. 19:00 210 m 8/8 7/8 St - -
Ortszeit Bedeckungsgrad in Achtel und Wolkenuntergrenze
Do, 14.11. 18:00 2(9000m)
Do, 14.11. 17:50 keine Wolken(unter 1500 m)
Do, 14.11. 17:20 keine Wolken(unter 1500 m)
Do, 14.11. 17:00 1(420m) 3(9000m)
Do, 14.11. 16:50 1-2(420m) 3-4(9000m)
Do, 14.11. 16:20 1-2(420m) 3-4(9000m)
Do, 14.11. 16:00 1(420m) 3(9000m)
Do, 14.11. 15:20 1-2(420m) 3-4(9000m)
Do, 14.11. 15:00 2(420m) 4(9000m)
Do, 14.11. 14:20 1-2(360m) 3-4(9000m)
Ortszeit Luftdruck NN (hPa) Tendenz (hPa in 3 Std.)
Do, 14.11. 13:00 1008 - 0,5
Do, 14.11. 7:00 1009 - 1,1
Do, 14.11. 1:00 1011 + 0,3
Mi, 13.11. 19:00 1009 + 1,9
Mi, 13.11. 13:00 1007 + 0,7
Mi, 13.11. 7:00 1005 - 0,3
Mi, 13.11. 1:00 1007 - 0,7
Di, 12.11. 19:00 1008 - 1,0
Ortszeit Luftdruck NN (hPa) Tendenz (hPa in 3 Std.)
Do, 14.11. 18:00 1006 - 1,2
Do, 14.11. 17:50 1004 keine Meldung
Do, 14.11. 17:20 1004 keine Meldung
Do, 14.11. 17:00 1006 - 1,1
Do, 14.11. 16:50 1005 keine Meldung
Do, 14.11. 16:20 1005 keine Meldung
Do, 14.11. 16:00 1006 - 1,2
Do, 14.11. 15:20 1005 keine Meldung
Do, 14.11. 15:00 1007 - 1,1
Do, 14.11. 14:20 1006 keine Meldung
Ortszeit Schneehöhe (cm)
Do, 14.11. 13:00 -
Do, 14.11. 7:00 -
Do, 14.11. 1:00 -
Mi, 13.11. 19:00 -
Mi, 13.11. 13:00 -
Mi, 13.11. 7:00 -
Mi, 13.11. 1:00 -
Di, 12.11. 19:00 -
Ortszeit Schneehöhe (cm)
Do, 14.11. 18:00 -
Do, 14.11. 17:50 -
Do, 14.11. 17:20 -
Do, 14.11. 17:00 -
Do, 14.11. 16:50 -
Do, 14.11. 16:20 -
Do, 14.11. 16:00 -
Do, 14.11. 15:20 -
Do, 14.11. 15:00 -
Do, 14.11. 14:20 -
Link zu dieser Seite / Seite empfehlen

Das Wetter in ...